Regional Weather Roundup
Issued by NWS

Home | Current Version | Previous Version | Text Only | Print | Product List | Glossary Off
Versions: 1 2 3 4 5 6 7 8 9 10 11 12 13 14 15 16 17 18 19 20 21 22 23 24 25 26 27 28 29 30 31 32 33 34 35 36 37 38 39 40 41 42 43 44 45 46 47 48 49 50

000
ASUS43 KBIS 051301
RWRND

NORTH DAKOTA REGIONAL WEATHER ROUNDUP
NATIONAL WEATHER SERVICE BISMARCK ND
800 AM CDT TUE MAY 05 2015

NOTE: "FAIR" INDICATES FEW OR NO CLOUDS BELOW 12,000 FEET WITH NO
SIGNIFICANT WEATHER AND/OR OBSTRUCTIONS TO VISIBILITY.


NDZ001>003-009>011-017-051400-
NORTHWEST NORTH DAKOTA

CITY           SKY/WX    TMP DP  RH WIND       PRES   REMARKS
WILLISTON      SUNNY     52  28  39 VRB6      29.95S
MINOT          MOSUNNY   56  29  35 SE14G23   30.02F
$$

NDZ018>021-031>035-040>046-051400-
SOUTHWEST NORTH DAKOTA

CITY           SKY/WX    TMP DP  RH WIND       PRES   REMARKS
BISMARCK       CLOUDY    53  32  44 S16       30.06S
DICKINSON      SUNNY     47  31  53 SE15      29.96F
GARRISON         N/A     54  31  41 SE15      30.01F
HETTINGER ARPT MOSUNNY   49  30  48 SE12      30.00F
$$

NDZ004>008-012>016-024-026-027-054-051400-
NORTHEAST NORTH DAKOTA

CITY           SKY/WX    TMP DP  RH WIND       PRES   REMARKS
GRAND FORKS    MOSUNNY   49  31  49 S8        30.18R
DEVILS LAKE    CLOUDY    54  34  47 SE15      30.12F
$$

NDZ022-023-025-028>030-036>039-047>053-051400-
SOUTHEAST NORTH DAKOTA

CITY           SKY/WX    TMP DP  RH WIND       PRES   REMARKS
FARGO          SUNNY     55  28  35 SE10      30.18S
JAMESTOWN      MOSUNNY   53  31  42 S12       30.13F
$$



USA.gov is the U.S. government's official web portal to all federal, state and local government web resources and services.